Location: Bremen
(53.0793°N, 8.8017°E)
Time: 23:13:03
(UTC+02:00)

Vanguard 2 Rocket - Pass Details

Date: 16 April 2024
Orbit: 556 x 3304 km, 32.9° (Epoch: 20 May)

Event Time Altitude Azimuth Distance (km) Brightness Sun altitude
Rises 02:43:47 0° 252° (WSW) 7,247 11.1 -24.5°
Reaches altitude 10° 02:49:15 10° 245° (WSW) 6,261 10.7 -24.2°
Enters shadow 02:51:25 14° 242° (WSW) 5,881 10.5 -24.0°
Exits shadow 02:57:14 26° 228° (SW) 4,931 10.0 -23.7°
Maximum altitude 03:05:56 36° 189° (S) 4,004 9.6 -23.1°
Drops below altitude 10° 03:18:42 10° 130° (SE) 4,809 10.5 -22.2°
Sets 03:22:14 0° 122° (ESE) 5,462 10.9 -21.9°
